2024-169B

Last updated on Tue Oct 08 2024 00:02:04 GMT+0000 (Coordinated Universal Time)

1 61190U 24169B 24281.52658421 .00023148 00000+0 14634-2 0 9996 2 61190 97.5868 6.7347 0009292 210.4282 149.6408 15.08995802 2618
UTC large
Height (km)
Speed (km/s)
/
Latitude / Longitude
Inclination (degrees)
Orbital Period (minutes)
Azimuth
Elevation
Range (km)
Doppler Factor

Next 0 passes for location: London (51.5072 / 0.1276)

Sorry there are no passes over London.